This is the latest recevied weather packets stored in our database for station/object WE8M. If no packets are shown the sender has not sent any weather packets the latest 10 day(s).
| Time | Temp. | Humidity | Pressure | Rain* | Wind** | Luminosity | Snow |
|---|---|---|---|---|---|---|---|
| 1777761855 | 10° C | 41% | 1016.9 hPa | 0 mm | - | - | - |
| 1777761552 | 10° C | 43% | 1016.7 hPa | 0 mm | - | - | - |
| 1777761250 | 9.44° C | 47% | 1016.8 hPa | 0 mm | - | - | - |
| 1777760948 | 10° C | 47% | 1016.8 hPa | 0 mm | - | - | - |
| 1777760645 | 10° C | 41% | 1016.9 hPa | 0 mm | - | - | - |
| 1777760037 | 10° C | 46% | 1016.9 hPa | 0 mm | - | - | - |
| 1777759734 | 10.56° C | 45% | 1016.9 hPa | 0 mm | - | - | - |
| 1777759430 | 10.56° C | 43% | 1016.7 hPa | 0 mm | - | - | - |
| 1777759127 | 10° C | 43% | 1016.8 hPa | 0 mm | - | - | - |
| 1777758824 | 10° C | 48% | 1016.7 hPa | 0 mm | - | - | - |
| 1777758521 | 10° C | 47% | 1016.7 hPa | 0 mm | - | - | - |
| 1777757915 | 11.11° C | 40% | 1016.5 hPa | 0 mm | - | - | - |
| 1777757612 | 10.56° C | 48% | 1016.7 hPa | 0 mm | - | - | - |
| 1777757311 | 10° C | 48% | 1016.6 hPa | 0 mm | - | - | - |
| 1777757009 | 10° C | 45% | 1016.3 hPa | 0 mm | - | - | - |
| 1777753074 | 10.56° C | 42% | 1016.7 hPa | 0 mm | - | - | - |
| 1777752775 | 11.11° C | 41% | 1016.7 hPa | 0 mm | - | - | - |
| 1777751866 | 10.56° C | 45% | 1016.9 hPa | 0 mm | - | - | - |
| 1777750049 | 10.56° C | 42% | 1017 hPa | 0 mm | - | - | - |
| 1777747021 | 11.67° C | 43% | 1017.2 hPa | 0 mm | - | - | - |
| 1777746717 | 11.11° C | 40% | 1017.2 hPa | 0 mm | - | - | - |
| 1777746412 | 11.11° C | 42% | 1017.1 hPa | 0 mm | - | - | - |
| 1777745806 | 12.78° C | 42% | 1017.4 hPa | 0 mm | - | - | - |
| 1777742171 | 11.11° C | 43% | 1017.5 hPa | 0 mm | - | - | - |
| 1777741868 | 10.56° C | 45% | 1017.3 hPa | 0 mm | - | - | - |
* Rain latest hour (hover to see other rain measurements)
** Current wind speed in m/s (hover to see current wind gust speed)